Location: Castelbiague
(43.0361°N, 0.9246°E)
Time: 09:16:07
(UTC+00:00)

Cosmos 2322 Rocket - Pass Details

Date: 17 June 2021
Orbit: 833 x 850 km, 71.0° (Epoch: 03 August)

Event Time Altitude Azimuth Distance (km) Brightness Sun altitude
Rises 21:27:20 0° 222° (SW) 3,399 5.2 -15.1°
Reaches altitude 10° 21:29:53 10° 229° (SW) 2,469 4.6 -15.4°
Maximum altitude 21:35:17 44° 301° (WNW) 1,156 3.4 -16.0°
Drops below altitude 10° 21:40:44 10° 13° (NNE) 2,485 5.3 -16.5°
Sets 21:43:20 0° 20° (NNE) 3,424 5.9 -16.7°
